Regional Weather Roundup
Issued by NWS

Home | Current Version | Previous Version | Text Only | Print | Product List | Glossary On
Versions: 1 2 3 4 5 6 7 8 9 10 11 12 13 14 15 16 17 18 19 20 21 22 23 24 25 26 27 28 29 30 31 32 33 34 35 36 37 38 39 40 41 42 43 44 45 46 47 48 49 50
000
ASUS43 KLSX 301107
RWRMO

WEATHER SUMMARY FOR MISSOURI
NATIONAL WEATHER SERVICE SPRINGFIELD MO
600 AM CDT WED JUL 30 2014

NOTE: "FAIR" INDICATES FEW OR NO CLOUDS BELOW 12,000 FEET WITH NO
       SIGNIFICANT WEATHER AND/OR OBSTRUCTIONS TO VISIBILITY.
       CURRENT SKY AND/OR WEATHER CONDITIONS ARE NOT AVAILABLE FOR
       CHILLICOTHE AND FARMINGTON.

MOZ001>031-035>038-043-044-053-054-301200-
...NORTHERN AND WESTERN MISSOURI...

CITY           SKY/WX    TMP DP  RH WIND       PRES   REMARKS
KANSAS CTY INT CLOUDY    63  59  87 NE7       30.11R
KANSAS C DTWN  CLOUDY    68  59  73 N3        30.09S
LEE`S SUMMIT   CLOUDY    65  61  87 N3        30.11R
ST JOSEPH      MOCLDY    60  59  96 N5        30.11S
CHILLICOTHE      N/A     57  55  93 CALM      30.12R
KIRKSVILLE     PTCLDY    55  54  96 NW3       30.10R

$$
MOZ066>068-077>081-088>096-101>105-301200-
...SOUTHWEST MISSOURI...

CITY           SKY/WX    TMP DP  RH WIND       PRES   REMARKS
SPRINGFIELD    CLOUDY    68  60  75 CALM      30.09R
JOPLIN         CLOUDY    67  65  93 VRB6      30.09S

$$
MOZ032>034-039>042-045>050-055>058-069>072-301200-
...CENTRAL MISSOURI...

CITY           SKY/WX    TMP DP  RH WIND       PRES   REMARKS
COLUMBIA       MOCLDY    62  56  80 CALM      30.09R
JEFFERSON CITY MOCLDY    60  57  89 CALM      30.08R
ROLLA          PTCLDY    61  56  83 S5        30.08R
SEDALIA        PTCLDY    61  57  87 CALM      30.10R
WHITEMAN AFB   CLOUDY    60  50  70 SW1       30.09R
OSAGE BEACH    PTCLDY    57  55  94 CALM      30.09R

$$
MOZ051-052-059>065-301200-
...EAST CENTRAL MISSOURI...

CITY           SKY/WX    TMP DP  RH WIND       PRES   REMARKS
ST LOUIS INTL  PTCLDY    65  57  75 CALM      30.09R
SPIRIT OF STL  PTCLDY    59  57  93 CALM      30.07R
ST CHARLES     FOG       55  54  96 CALM      30.08R VSB 1/4

$$
MOZ072>076-082>087-097>100-106>115-301200-
...SOUTH CENTRAL AND SOUTHEAST MISSOURI...

CITY           SKY/WX    TMP DP  RH WIND       PRES   REMARKS
CAPE GIRARDEAU CLOUDY    61  58  90 CALM      30.10R
FARMINGTON     MOCLDY    61  55  82 CALM      30.12S
POPLAR BLUFF   PTCLDY    59  56  89 CALM      30.09R
WEST PLAINS    PTCLDY    60  56  86 CALM      30.11S

$$



USA.gov is the U.S. government's official web portal to all federal, state and local government web resources and services.